Year,Month,Day,Hour,Minute,Value (Times are PST for temperature in C)
2012,06,26,10,38,17.90
2012,06,26,10,39,17.90
2012,06,26,10,40,17.90
2012,06,26,10,41,18.10
2012,06,26,10,42,18.20
2012,06,26,10,43,18.30
2012,06,26,10,44,18.40
2012,06,26,10,45,18.50
2012,06,26,10,46,18.60
2012,06,26,10,47,18.60
2012,06,26,10,48,18.60
2012,06,26,10,49,18.60
2012,06,26,10,50,18.70
2012,06,26,10,51,18.80
2012,06,26,10,52,18.90
2012,06,26,10,53,18.90
2012,06,26,10,54,18.80
2012,06,26,10,55,18.70
2012,06,26,10,56,18.50
2012,06,26,10,57,18.40
2012,06,26,10,58,18.40
2012,06,26,10,59,18.50
2012,06,26,11,00,18.50
2012,06,26,11,01,18.50
2012,06,26,11,02,18.50
2012,06,26,11,03,18.60
2012,06,26,11,04,18.50
2012,06,26,11,05,18.40
2012,06,26,11,06,18.30
2012,06,26,11,07,18.30
2012,06,26,11,08,18.20
2012,06,26,11,09,18.20
2012,06,26,11,10,18.10
2012,06,26,11,11,18.10
2012,06,26,11,12,18.10
2012,06,26,11,13,18.10
2012,06,26,11,14,18.10
2012,06,26,11,15,18.00
2012,06,26,11,16,17.90
2012,06,26,11,17,17.90
2012,06,26,11,18,17.90
2012,06,26,11,19,18.00
2012,06,26,11,20,18.10
2012,06,26,11,21,18.10
2012,06,26,11,22,18.20
2012,06,26,11,23,18.20
2012,06,26,11,24,18.20
2012,06,26,11,25,18.20
2012,06,26,11,26,18.20
2012,06,26,11,27,18.20
2012,06,26,11,28,18.20
2012,06,26,11,29,18.20
2012,06,26,11,30,18.00
2012,06,26,11,31,17.90
2012,06,26,11,32,18.00
2012,06,26,11,33,18.10
2012,06,26,11,34,18.00
2012,06,26,11,35,18.00
2012,06,26,11,36,17.90
2012,06,26,11,37,17.90
2012,06,26,11,38,17.90
2012,06,26,11,39,17.90
2012,06,26,11,40,17.70
2012,06,26,11,41,17.60
2012,06,26,11,42,17.50
2012,06,26,11,43,17.50
2012,06,26,11,44,17.50
2012,06,26,11,45,17.50
2012,06,26,11,46,17.60
2012,06,26,11,47,17.70
2012,06,26,11,48,17.80
2012,06,26,11,49,17.90
2012,06,26,11,50,17.90
2012,06,26,11,51,17.90
2012,06,26,11,52,17.90
2012,06,26,11,53,17.90
2012,06,26,11,54,17.80
2012,06,26,11,55,17.80
2012,06,26,11,56,17.90
2012,06,26,11,57,17.90
2012,06,26,11,58,17.80
2012,06,26,11,59,17.80
2012,06,26,12,00,17.70
2012,06,26,12,01,17.70
2012,06,26,12,02,17.80
2012,06,26,12,03,17.90
2012,06,26,12,04,17.90
2012,06,26,12,05,18.00
2012,06,26,12,06,18.10
2012,06,26,12,07,18.10
2012,06,26,12,08,18.10
2012,06,26,12,09,18.20
2012,06,26,12,10,18.20
2012,06,26,12,11,18.20
2012,06,26,12,12,18.20
2012,06,26,12,13,18.10
2012,06,26,12,14,18.00
2012,06,26,12,15,18.00
2012,06,26,12,16,18.10
2012,06,26,12,17,18.00
2012,06,26,12,18,17.90
2012,06,26,12,19,17.90
2012,06,26,12,20,17.90
2012,06,26,12,21,17.80
2012,06,26,12,22,17.80
2012,06,26,12,23,17.80
2012,06,26,12,24,17.80
2012,06,26,12,25,17.90
2012,06,26,12,26,17.90
2012,06,26,12,27,17.90
2012,06,26,12,28,18.00
2012,06,26,12,29,18.10
2012,06,26,12,30,18.20
2012,06,26,12,31,18.30
2012,06,26,12,32,18.30
2012,06,26,12,33,18.30
2012,06,26,12,34,18.30
2012,06,26,12,35,18.20
2012,06,26,12,36,18.20
2012,06,26,12,37,18.20
2012,06,26,12,38,18.20
2012,06,26,12,39,18.10
2012,06,26,12,40,18.10
2012,06,26,12,41,18.00
2012,06,26,12,42,17.90
2012,06,26,12,43,17.90
2012,06,26,12,44,17.90
2012,06,26,12,45,17.90
2012,06,26,12,46,17.90
2012,06,26,12,47,17.90
2012,06,26,12,48,17.90
2012,06,26,12,49,17.90
2012,06,26,12,50,17.90
2012,06,26,12,51,17.90
2012,06,26,12,52,17.90
2012,06,26,12,53,17.90
2012,06,26,12,54,18.00
2012,06,26,12,55,18.10
2012,06,26,12,56,18.20
2012,06,26,12,57,18.20
2012,06,26,12,58,18.20
2012,06,26,12,59,18.20
2012,06,26,13,00,18.20
2012,06,26,13,01,18.20
2012,06,26,13,02,18.20
2012,06,26,13,03,18.20
2012,06,26,13,04,18.20
2012,06,26,13,05,18.30
2012,06,26,13,06,18.30
2012,06,26,13,07,18.40
2012,06,26,13,08,18.40
2012,06,26,13,09,18.40
2012,06,26,13,10,18.40
2012,06,26,13,11,18.30
2012,06,26,13,12,18.30
2012,06,26,13,13,18.30
2012,06,26,13,14,18.40
2012,06,26,13,15,18.40
2012,06,26,13,16,18.40
2012,06,26,13,17,18.40
2012,06,26,13,18,18.40
2012,06,26,13,19,18.40
2012,06,26,13,20,18.50
2012,06,26,13,21,18.60
2012,06,26,13,22,18.70
2012,06,26,13,23,18.80
2012,06,26,13,24,18.80
2012,06,26,13,25,18.80
2012,06,26,13,26,18.80
2012,06,26,13,27,18.70
2012,06,26,13,28,18.60
2012,06,26,13,29,18.60
2012,06,26,13,30,18.50
2012,06,26,13,31,18.40
2012,06,26,13,32,18.40
2012,06,26,13,33,18.30
2012,06,26,13,34,18.20
2012,06,26,13,35,18.20
2012,06,26,13,36,18.20
2012,06,26,13,37,18.20
2012,06,26,13,38,18.20
2012,06,26,13,39,18.20
2012,06,26,13,40,18.00
2012,06,26,13,41,17.90
2012,06,26,13,42,17.90
2012,06,26,13,43,17.90
2012,06,26,13,44,17.90
2012,06,26,13,45,18.00
2012,06,26,13,46,18.10
2012,06,26,13,47,18.10
2012,06,26,13,48,18.20
2012,06,26,13,49,18.20
2012,06,26,13,50,18.30
2012,06,26,13,51,18.30
2012,06,26,13,52,18.20
2012,06,26,13,53,18.20
2012,06,26,13,54,18.20
2012,06,26,13,55,18.20
2012,06,26,13,56,18.20
2012,06,26,13,57,18.20
2012,06,26,13,58,18.20
2012,06,26,13,59,18.20
2012,06,26,14,00,18.10
2012,06,26,14,01,18.10
2012,06,26,14,02,18.10
2012,06,26,14,03,18.10
2012,06,26,14,04,18.10
2012,06,26,14,05,18.20
2012,06,26,14,06,18.20
2012,06,26,14,07,18.20
2012,06,26,14,08,18.20
2012,06,26,14,09,18.30
2012,06,26,14,10,18.30
2012,06,26,14,11,18.40
2012,06,26,14,12,18.40
2012,06,26,14,13,18.40
2012,06,26,14,14,18.40
2012,06,26,14,15,18.40
2012,06,26,14,16,18.40
2012,06,26,14,17,18.40
2012,06,26,14,18,18.40
2012,06,26,14,19,18.20
2012,06,26,14,20,18.30
2012,06,26,14,21,18.40
2012,06,26,14,22,18.40
2012,06,26,14,23,18.40
2012,06,26,14,24,18.40
2012,06,26,14,25,18.30
2012,06,26,14,26,18.20
2012,06,26,14,27,18.20
2012,06,26,14,28,18.30
2012,06,26,14,29,18.40
2012,06,26,14,30,18.50
2012,06,26,14,31,18.50
2012,06,26,14,32,18.50
2012,06,26,14,33,18.50
2012,06,26,14,34,18.50
2012,06,26,14,35,18.40
2012,06,26,14,36,18.40
2012,06,26,14,37,18.50
2012,06,26,14,38,18.50
2012,06,26,14,39,18.50
2012,06,26,14,40,18.50
2012,06,26,14,41,18.50
2012,06,26,14,42,18.40
2012,06,26,14,43,18.40
2012,06,26,14,44,18.40
2012,06,26,14,45,18.50
2012,06,26,14,46,18.50
2012,06,26,14,47,18.60
2012,06,26,14,48,18.60
2012,06,26,14,49,18.60
2012,06,26,14,50,18.50
2012,06,26,14,51,18.50
2012,06,26,14,52,18.50
2012,06,26,14,53,18.50
2012,06,26,14,54,18.60
2012,06,26,14,55,18.70
2012,06,26,14,56,18.90
2012,06,26,14,57,18.90
2012,06,26,14,58,19.10
2012,06,26,14,59,19.10
2012,06,26,15,00,19.10
2012,06,26,15,01,19.10
2012,06,26,15,02,19.10
2012,06,26,15,03,19.10
2012,06,26,15,04,18.90
2012,06,26,15,05,18.90
2012,06,26,15,06,18.90
2012,06,26,15,07,18.90
2012,06,26,15,08,18.90
2012,06,26,15,09,19.10
2012,06,26,15,10,19.10
2012,06,26,15,11,18.90
2012,06,26,15,12,18.90
2012,06,26,15,13,18.90
2012,06,26,15,14,19.00
2012,06,26,15,15,19.10
2012,06,26,15,16,19.10
2012,06,26,15,17,19.10
2012,06,26,15,18,19.10
2012,06,26,15,19,19.10
2012,06,26,15,20,19.10
2012,06,26,15,21,19.00
2012,06,26,15,22,18.90
2012,06,26,15,23,18.90
2012,06,26,15,24,18.90
2012,06,26,15,25,18.90
2012,06,26,15,26,19.00
2012,06,26,15,27,19.10
2012,06,26,15,28,19.10
2012,06,26,15,29,19.10
2012,06,26,15,30,19.10
2012,06,26,15,31,19.10
2012,06,26,15,32,19.00
2012,06,26,15,33,18.90
2012,06,26,15,34,19.00
2012,06,26,15,35,19.10
2012,06,26,15,36,19.00
2012,06,26,15,37,18.90
2012,06,26,15,38,18.90
2012,06,26,15,39,18.80
2012,06,26,15,40,18.80
2012,06,26,15,41,18.80
2012,06,26,15,42,18.90
2012,06,26,15,43,18.90
2012,06,26,15,44,18.80
2012,06,26,15,45,18.90
2012,06,26,15,46,18.90
2012,06,26,15,47,18.90
2012,06,26,15,48,18.90
2012,06,26,15,49,18.80
2012,06,26,15,50,18.80
2012,06,26,15,51,18.80
2012,06,26,15,52,18.90
2012,06,26,15,53,18.90
2012,06,26,15,54,19.00
2012,06,26,15,55,19.10
2012,06,26,15,56,19.10
2012,06,26,15,57,18.90
2012,06,26,15,58,18.90
2012,06,26,15,59,18.90
2012,06,26,16,00,18.90
2012,06,26,16,01,19.00
2012,06,26,16,02,19.10
2012,06,26,16,03,19.10
2012,06,26,16,04,19.10
2012,06,26,16,05,19.10
2012,06,26,16,06,19.20
2012,06,26,16,07,19.20
2012,06,26,16,08,19.30
2012,06,26,16,09,19.30
2012,06,26,16,10,19.40
2012,06,26,16,11,19.40
2012,06,26,16,12,19.40
2012,06,26,16,13,19.30
2012,06,26,16,14,19.30
2012,06,26,16,15,19.20
2012,06,26,16,16,19.10
2012,06,26,16,17,19.10
2012,06,26,16,18,19.20
2012,06,26,16,19,19.20
2012,06,26,16,20,19.20
2012,06,26,16,21,19.20
2012,06,26,16,22,19.20
2012,06,26,16,23,19.10
2012,06,26,16,24,19.10
2012,06,26,16,25,19.10
2012,06,26,16,26,19.00
2012,06,26,16,27,19.00
2012,06,26,16,28,19.10
2012,06,26,16,29,19.10
2012,06,26,16,30,19.10
2012,06,26,16,31,19.10
2012,06,26,16,32,19.10
2012,06,26,16,33,19.10
2012,06,26,16,34,19.10
2012,06,26,16,35,19.10
2012,06,26,16,36,19.20
2012,06,26,16,37,19.20
2012,06,26,16,38,19.20
2012,06,26,16,39,19.20
2012,06,26,16,40,19.10
2012,06,26,16,41,19.10
2012,06,26,16,42,19.10
2012,06,26,16,43,19.10
2012,06,26,16,44,19.00
2012,06,26,16,45,18.90
2012,06,26,16,46,18.90
2012,06,26,16,47,18.90
2012,06,26,16,48,18.80
2012,06,26,16,49,18.80
2012,06,26,16,50,18.80
2012,06,26,16,51,18.80
2012,06,26,16,52,18.80
2012,06,26,16,53,18.80
2012,06,26,16,54,18.80
2012,06,26,16,55,18.90
2012,06,26,16,56,19.00
2012,06,26,16,57,19.00
2012,06,26,16,58,18.90
2012,06,26,16,59,18.90
2012,06,26,17,00,18.90
2012,06,26,17,01,18.90
2012,06,26,17,02,18.80
2012,06,26,17,03,18.80
2012,06,26,17,04,18.80
2012,06,26,17,05,18.90
2012,06,26,17,06,18.90
2012,06,26,17,07,19.00
2012,06,26,17,08,18.90
2012,06,26,17,09,18.90
2012,06,26,17,10,18.90
2012,06,26,17,11,18.90
2012,06,26,17,12,18.90
2012,06,26,17,13,19.00
2012,06,26,17,14,19.10
2012,06,26,17,15,19.10
2012,06,26,17,16,19.10
2012,06,26,17,17,19.00
2012,06,26,17,18,18.90
2012,06,26,17,19,18.90
2012,06,26,17,20,18.90
2012,06,26,17,21,18.90
2012,06,26,17,22,18.80
2012,06,26,17,23,18.80
2012,06,26,17,24,18.70
2012,06,26,17,25,18.70
2012,06,26,17,26,18.90
2012,06,26,17,27,18.90
2012,06,26,17,28,18.90
2012,06,26,17,29,18.90
2012,06,26,17,30,18.80
2012,06,26,17,31,18.70
2012,06,26,17,32,18.60
2012,06,26,17,33,18.60
2012,06,26,17,34,18.50
2012,06,26,17,35,18.50
2012,06,26,17,36,18.50
2012,06,26,17,37,18.50
2012,06,26,17,38,18.60
2012,06,26,17,39,18.60
2012,06,26,17,40,18.60
2012,06,26,17,41,18.70
2012,06,26,17,42,18.70
2012,06,26,17,43,18.70
2012,06,26,17,44,18.70
2012,06,26,17,45,18.60
2012,06,26,17,46,18.50
2012,06,26,17,47,18.40
2012,06,26,17,48,18.40
2012,06,26,17,49,18.50
2012,06,26,17,50,18.50
2012,06,26,17,51,18.50
2012,06,26,17,52,18.50
2012,06,26,17,53,18.50
2012,06,26,17,54,18.50
2012,06,26,17,55,18.50
2012,06,26,17,56,18.50
2012,06,26,17,57,18.50
2012,06,26,17,58,18.50
2012,06,26,17,59,18.40
2012,06,26,18,00,18.40
2012,06,26,18,01,18.40
2012,06,26,18,02,18.40
2012,06,26,18,03,18.40
2012,06,26,18,04,18.40
2012,06,26,18,05,18.40
2012,06,26,18,06,18.40
2012,06,26,18,07,18.50
2012,06,26,18,08,18.50
2012,06,26,18,09,18.50
2012,06,26,18,10,18.50
2012,06,26,18,11,18.40
2012,06,26,18,12,18.40
2012,06,26,18,13,18.40
2012,06,26,18,14,18.30
2012,06,26,18,15,18.20
2012,06,26,18,16,18.20
2012,06,26,18,17,18.20
2012,06,26,18,18,18.30
2012,06,26,18,19,18.20
2012,06,26,18,20,18.20
2012,06,26,18,21,18.20
2012,06,26,18,22,18.20
2012,06,26,18,23,18.20
2012,06,26,18,24,18.20
2012,06,26,18,25,18.20
2012,06,26,18,26,18.10
2012,06,26,18,27,18.10
2012,06,26,18,28,18.10
2012,06,26,18,29,18.10
2012,06,26,18,30,18.20
2012,06,26,18,31,18.20
2012,06,26,18,32,18.20
2012,06,26,18,33,18.20
2012,06,26,18,34,18.20
2012,06,26,18,35,18.20
2012,06,26,18,36,18.20
2012,06,26,18,37,18.20
2012,06,26,18,38,18.20
2012,06,26,18,39,18.10
2012,06,26,18,40,17.90
2012,06,26,18,41,17.90
2012,06,26,18,42,17.90
2012,06,26,18,43,17.90
2012,06,26,18,44,17.90
2012,06,26,18,45,17.90
2012,06,26,18,46,17.90
2012,06,26,18,47,17.90
2012,06,26,18,48,17.80
2012,06,26,18,49,17.80
2012,06,26,18,50,17.70
2012,06,26,18,51,17.70
2012,06,26,18,52,17.70
2012,06,26,18,53,17.60
2012,06,26,18,54,17.60
2012,06,26,18,55,17.60
2012,06,26,18,56,17.60
2012,06,26,18,57,17.60
2012,06,26,18,58,17.50
2012,06,26,18,59,17.50
2012,06,26,19,00,17.50
2012,06,26,19,01,17.50
2012,06,26,19,02,17.60
2012,06,26,19,03,17.60
2012,06,26,19,04,17.70
2012,06,26,19,05,17.70
2012,06,26,19,06,17.70
2012,06,26,19,07,17.70
2012,06,26,19,08,17.70
2012,06,26,19,09,17.70
2012,06,26,19,10,17.60
2012,06,26,19,11,17.60
2012,06,26,19,12,17.60
2012,06,26,19,13,17.60
2012,06,26,19,14,17.60
2012,06,26,19,15,17.60
2012,06,26,19,16,17.60
2012,06,26,19,17,17.60
2012,06,26,19,18,17.50
2012,06,26,19,19,17.50
2012,06,26,19,20,17.50
2012,06,26,19,21,17.40
2012,06,26,19,22,17.40
2012,06,26,19,23,17.40
2012,06,26,19,24,17.40
2012,06,26,19,25,17.40
2012,06,26,19,26,17.30
2012,06,26,19,27,17.30
2012,06,26,19,28,17.30
2012,06,26,19,29,17.30
2012,06,26,19,30,17.30
2012,06,26,19,31,17.30
2012,06,26,19,32,17.30
2012,06,26,19,33,17.30
2012,06,26,19,34,17.30
2012,06,26,19,35,17.30
2012,06,26,19,36,17.30
2012,06,26,19,37,17.30
2012,06,26,19,38,17.20
2012,06,26,19,39,17.20
2012,06,26,19,40,17.20
2012,06,26,19,41,17.20
2012,06,26,19,42,17.10
2012,06,26,19,43,17.10
2012,06,26,19,44,17.00
2012,06,26,19,45,16.90
2012,06,26,19,46,16.90
2012,06,26,19,47,16.80
2012,06,26,19,48,16.80
2012,06,26,19,49,16.70
2012,06,26,19,50,16.70
2012,06,26,19,51,16.70
2012,06,26,19,52,16.70
2012,06,26,19,53,16.70
2012,06,26,19,54,16.60
2012,06,26,19,55,16.60
2012,06,26,19,56,16.50
2012,06,26,19,57,16.40
2012,06,26,19,58,16.40
2012,06,26,19,59,16.40
2012,06,26,20,00,16.40
2012,06,26,20,01,16.40
2012,06,26,20,02,16.40
2012,06,26,20,03,16.30
2012,06,26,20,04,16.30
2012,06,26,20,05,16.30
2012,06,26,20,06,16.30
2012,06,26,20,07,16.20
2012,06,26,20,08,16.20
2012,06,26,20,09,16.20
2012,06,26,20,10,16.10
2012,06,26,20,11,16.10
2012,06,26,20,12,16.10
2012,06,26,20,13,16.10
2012,06,26,20,14,16.10
2012,06,26,20,15,16.00
2012,06,26,20,16,15.90
2012,06,26,20,17,15.90
2012,06,26,20,18,15.80
2012,06,26,20,19,15.80
2012,06,26,20,20,15.80
2012,06,26,20,21,15.80
2012,06,26,20,22,15.80
2012,06,26,20,23,15.80
2012,06,26,20,24,15.80
2012,06,26,20,25,15.70
2012,06,26,20,26,15.70
2012,06,26,20,27,15.70
2012,06,26,20,28,15.70
2012,06,26,20,29,15.70
2012,06,26,20,30,15.60
2012,06,26,20,31,15.60
2012,06,26,20,32,15.60
2012,06,26,20,33,15.60
2012,06,26,20,34,15.50
2012,06,26,20,35,15.50
2012,06,26,20,36,15.50
2012,06,26,20,37,15.50
2012,06,26,20,38,15.40
2012,06,26,20,39,15.40
2012,06,26,20,40,15.40
2012,06,26,20,41,15.40
2012,06,26,20,42,15.30
2012,06,26,20,43,15.30
2012,06,26,20,44,15.30
2012,06,26,20,45,15.30
2012,06,26,20,46,15.30
2012,06,26,20,47,15.30
2012,06,26,20,48,15.30
2012,06,26,20,49,15.30
2012,06,26,20,50,15.30
2012,06,26,20,51,15.30
2012,06,26,20,52,15.30
2012,06,26,20,53,15.30
2012,06,26,20,54,15.30
2012,06,26,20,55,15.30
